FW0579 Weather Reports


Display with metric or nautical units.
time (UTC)temp
F
wind
direction
speed
MPH
gust
MPH
rain 1hr
in
rain 24hr
in
rain mn
in
humidity
%
barometer
mb
20260505234517 65 236 3.0 8.0 0.00 0.17 0.17 71 1014.5
20260505233014 65 360 4.0 9.0 0.00 0.17 0.17 72 1014.5
20260505231527 64 360 2.0 8.0 0.00 0.17 0.17 72 1014.4
20260505230010 64 360 3.0 6.0 0.00 0.17 0.17 73 1014.5
20260505224508 63 360 2.0 5.0 0.00 0.17 0.17 76 1014.5
20260505223003 62 360 3.0 6.0 0.00 0.17 0.17 76 1014.8
20260505221502 62 360 3.0 5.0 0.00 0.17 0.17 78 1014.9
20260505220005 61 231 2.0 5.0 0.00 0.17 0.17 79 1015.1
20260505214507 61 360 2.0 8.0 0.00 0.17 0.17 80 1015.1
20260505213014 60 360 0.0 5.0 0.00 0.17 0.17 80 1015.2
20260505211509 60 360 0.0 4.0 0.00 0.17 0.17 81 1015.4
20260505210001 60 227 4.0 8.0 0.00 0.17 0.17 80 1015.3
20260505204500 61 252 5.0 11.0 0.00 0.17 0.17 78 1015.4
20260505203122 61 221 3.0 8.0 0.00 0.17 0.17 79 1015.4
20260505201604 60 186 0.0 4.0 0.00 0.17 0.17 83 1015.4
20260505200056 59 100 0.0 2.0 0.00 0.17 0.17 83 1015.5
20260505194553 59 169 0.0 3.0 0.00 0.17 0.17 84 1015.6
20260505193051 59 211 0.0 2.0 0.00 0.17 0.17 84 1015.7
20260505191600 58 212 1.0 4.0 0.00 0.17 0.17 86 1015.6
20260505190047 58 211 0.0 2.0 0.00 0.17 0.17 87 1015.5
20260505184545 57 223 0.0 3.0 0.00 0.17 0.17 87 1015.4
20260505183044 57 222 1.0 3.0 0.00 0.17 0.17 87 1015.4
20260505181546 56 219 0.0 3.0 0.00 0.17 0.17 87 1015.2
20260505180049 56 221 1.0 6.0 0.00 0.17 0.17 88 1015.0
20260505174544 55 228 4.0 8.0 0.00 0.17 0.17 89 1014.9
20260505173040 55 218 3.0 6.0 0.00 0.17 0.17 89 1015.0
20260505171543 55 238 3.0 7.0 0.00 0.17 0.17 90 1014.9
20260505170052 55 186 0.0 0.0 0.00 0.17 0.17 91 1014.9
20260505164541 55 186 0.0 0.0 0.00 0.17 0.17 91 1014.9
20260505163037 55 186 0.0 4.0 0.00 0.17 0.17 91 1014.9
20260505161535 55 101 0.0 0.0 0.00 0.17 0.17 91 1014.8
20260505153036 54 109 1.0 4.0 0.00 0.17 0.17 91 1014.7
20260505151549 54 134 0.0 2.0 0.00 0.17 0.17 91 1014.5
20260505124520 53 269 0.0 0.0 0.00 0.17 0.17 90 1013.6
20260505123018 53 269 0.0 0.0 0.00 0.17 0.17 90 1013.5
20260505121517 53 269 0.0 1.0 0.01 0.17 0.17 90 1013.6
20260505120015 53 269 0.0 0.0 0.01 0.17 0.17 90 1013.8
20260505114517 53 269 0.0 1.0 0.02 0.17 0.17 90 1013.9
20260505113018 53 269 0.0 1.0 0.03 0.17 0.17 90 1013.8
20260505111513 53 269 0.0 0.0 0.02 0.16 0.16 89 1013.8
20260505101508 53 269 0.0 0.0 0.05 0.14 0.14 89 1014.1
20260505100008 53 269 0.0 0.0 0.05 0.14 0.14 89 1014.3
20260505094506 54 269 0.0 0.0 0.05 0.13 0.13 89 1014.3
20260505093006 53 269 0.0 0.0 0.04 0.12 0.12 88 1014.3
20260505091505 53 269 0.0 0.0 0.01 0.09 0.09 88 1014.5
20260505090004 53 269 0.0 0.0 0.02 0.09 0.09 88 1014.6
20260505084506 53 269 0.0 0.0 0.03 0.08 0.08 87 1014.9
20260505083002 53 269 0.0 0.0 0.06 0.08 0.08 87 1014.6
20260505081604 53 269 0.0 0.0 0.06 0.08 0.08 87 1014.5
20260505080059 53 269 0.0 0.0 0.06 0.08 0.08 87 1014.6
20260505074558 54 269 0.0 0.0 0.05 0.06 0.06 86 1014.8
20260505073059 53 269 0.0 0.0 0.03 0.03 0.03 86 1015.2
20260505071556 54 269 0.0 0.0 0.02 0.02 0.02 85 1015.3
20260505070057 54 269 0.0 3.0 0.02 0.02 0.02 85 1015.2
20260505064557 54 270 2.0 3.0 0.01 0.01 0.01 84 1014.7
20260505063052 54 271 0.0 0.0 0.00 0.00 0.00 83 1014.5
20260505061554 55 271 0.0 0.0 0.00 0.00 0.00 82 1014.3
20260505060046 55 271 0.0 0.0 0.00 0.00 0.00 81 1014.4
20260505054546 55 271 0.0 1.0 0.00 0.00 0.00 81 1014.5
20260505053047 55 271 0.0 0.0 0.00 0.00 0.00 80 1014.7
20260505051542 55 271 0.0 3.0 0.00 0.00 0.00 79 1014.6
20260505041536 57 279 1.0 5.0 0.00 0.00 0.00 72 1014.8
20260505040037 57 279 2.0 4.0 0.00 0.00 0.00 71 1014.5
20260505034536 58 277 0.0 2.0 0.00 0.00 0.00 72 1014.3
20260505033100 58 277 0.0 1.0 0.00 0.00 0.00 72 1014.3
20260505031538 58 277 0.0 3.0 0.00 0.00 0.00 72 1014.2
20260505030035 59 279 1.0 4.0 0.00 0.00 0.00 73 1014.0
20260505024534 59 107 0.0 3.0 0.00 0.00 0.00 76 1013.7
20260505023042 60 99 1.0 3.0 0.00 0.00 0.00 75 1013.9
20260505021533 60 96 1.0 2.0 0.00 0.00 0.00 74 1013.8
20260505020033 60 96 0.0 2.0 0.00 0.00 0.00 74 1013.8
20260505014534 60 96 1.0 2.0 0.00 0.00 0.00 73 1013.9
20260505013032 60 96 1.0 3.0 0.00 0.00 0.00 72 1013.9
20260505011533 61 96 1.0 4.0 0.00 0.00 0.00 71 1014.1
20260505010034 61 90 1.0 3.0 0.00 0.00 0.00 71 1014.1
20260505004543 61 89 1.0 4.0 0.00 0.00 0.00 70 1014.1
20260505003032 61 72 3.0 5.0 0.00 0.00 0.00 67 1014.1
20260505001532 62 58 2.0 4.0 0.00 0.00 0.00 66 1014.2
20260505000034 63 263 1.0 4.0 0.00 0.00 0.00 64 1014.1